Regional Weather Roundup
Issued by NWS

Home | Current Version | Previous Version | Text Only | Print | Product List | Glossary Off
Versions: 1 2 3 4 5 6 7 8 9 10 11 12 13 14 15 16 17 18 19 20 21 22 23 24 25 26 27 28 29 30 31 32 33 34 35 36 37 38 39 40 41 42 43 44 45 46 47 48 49 50

000
ASUS43 KTOP 230908
RWRKS

WEATHER ROUNDUP FOR KANSAS
NATIONAL WEATHER SERVICE GOODLAND KS
400 AM CDT TUE SEP 23 2014

NOTE:  "FAIR" INDICATES FEW OR NO CLOUDS BELOW 12,000 FEET WITH NO
SIGNIFICANT WEATHER AND/OR OBSTRUCTIONS TO VISIBILITY.

KSZ001>006-013>018-027>032-041>047-231000-
NORTHWEST KANSAS

CITY           SKY/WX    TMP DP  RH WIND       PRES   REMARKS
GOODLAND       PTCLDY    57  56  96 SE10      30.06F
HILL CITY      LGT RAIN  58  55  90 SE16G23   30.03F
RUSSELL        RAIN      58  53  84 NW16G30   30.19R
$$

KSZ061>065-074>080-084>089-231000-
SOUTHWEST KANSAS

CITY           SKY/WX    TMP DP  RH WIND       PRES   REMARKS
DODGE CITY     MOCLDY    62  44  51 S15       30.11F
ELKHART          N/A     65  58  78 S12         N/A
GARDEN CITY    CLEAR     62  49  62 S10       30.08F
GREAT BEND     CLOUDY    63  46  55 S14       30.14R
LIBERAL        PTCLDY    66  52  59 S16       30.13F
PRATT          CLOUDY    61  46  59 S14       30.15F
$$

KSZ066>073-081>083-090>101-231000-
SOUTHEAST KANSAS

CITY           SKY/WX    TMP DP  RH WIND       PRES   REMARKS
CHANUTE        MOCLDY    56  53  90 SE6       30.20F
COFFEYVILLE    PTCLDY    53  51  93 CALM      30.20F
HUTCHINSON     MOCLDY    61  50  67 S10       30.15F
MEDICINE LODGE   N/A     61  48  62 S7        30.15F
NEWTON         MOCLDY    55  46  71 S8        30.18F
PARSONS        PTCLDY    55  53  93 CALM      30.21F
WICHITA INTL   MOCLDY    59  51  75 S9        30.17S
WICHITA JABRA  PTCLDY    58  51  78 S7        30.17S
WICHITA MCCONL PTCLDY    60  53  77 SE8       30.17F
WINFIELD       PTCLDY    57  52  83 SE7       30.19S
$$

KSZ007>012-019>026-033>040-048>060-102>105-231000-
NORTHEAST KANSAS

CITY           SKY/WX    TMP DP  RH WIND       PRES   REMARKS
CONCORDIA      CLOUDY    61  52  72 S10       30.14S
EMPORIA        MOCLDY    56  52  86 SE7       30.19S
LAWRENCE       PTCLDY    49  47  93 E5        30.20F
MANHATTAN      MOCLDY    61  53  75 S6        30.16F
MARYSVILLE     MOCLDY    59  52  77 SE3       30.15F
OLATHE IND     PTCLDY    55  50  83 SE8       30.21F
OLATHE EXE     PTCLDY    54  51  90 SE6       30.20F
SALINA         CLOUDY    64  51  62 SE14      30.14F
TOPEKA BILLARD PTCLDY    58  53  84 SE5       30.19F
TOPEKA FORBES  PTCLDY    54  51  90 E5        30.19F
$$


USA.gov is the U.S. government's official web portal to all federal, state and local government web resources and services.